When you browse on this site, cookies collect data to enhance your experience and personalize the content and advertising you see.
Visit our Privacy Policy to learn more. By continuing to use the site, you agree to this use of cookies and data.
  • In Hungary
  • List of Countries
  • For 7 days
  • Water Temperature
  • Satellite Maps
  • Weather Map
  • News
  • Weather Widgets
  • user-avatar
    Login

    Hourly Weather Kalgoorlie

    Today, 23 January, Wednesday

    Time Temperature Precipitation Wind Pressure Humidity
    00:00 +27°C° 0.6 mm 7 mps 719 mmHg 61%
    01:00 +27°C° 0.6 mm 6 mps 719 mmHg 62%
    02:00 +28°C° 0 mm 2 mps 719 mmHg 59%
    03:00 +28°C° 0.5 mm 2 mps 719 mmHg 59%
    04:00 +28°C° 0.5 mm 3 mps 719 mmHg 58%
    05:00 +29°C° 0.5 mm 3 mps 720 mmHg 58%
    06:00 +29°C° 0.2 mm 4 mps 720 mmHg 55%
    07:00 +29°C° 0.2 mm 5 mps 720 mmHg 52%
    08:00 +29°C° 0.2 mm 6 mps 721 mmHg 49%
    09:00 +30°C° 0.1 mm 6 mps 721 mmHg 43%
    10:00 +33°C° 0.1 mm 6 mps 721 mmHg 36%
    11:00 +34°C° 0.1 mm 6 mps 721 mmHg 30%
    12:00 +35°C° 0 mm 7 mps 721 mmHg 25%
    13:00 +38°C° 0 mm 8 mps 721 mmHg 20%
    14:00 +39°C° 0 mm 9 mps 721 mmHg 16%
    15:00 +38°C° 0 mm 9 mps 721 mmHg 15%
    16:00 +38°C° 0 mm 10 mps 721 mmHg 14%
    17:00 +37°C° 0 mm 10 mps 721 mmHg 13%
    18:00 +34°C° 0 mm 10 mps 721 mmHg 14%
    19:00 +33°C° 0 mm 10 mps 722 mmHg 15%
    20:00 +31°C° 0 mm 9 mps 722 mmHg 16%
    21:00 +28°C° 0 mm 10 mps 722 mmHg 21%
    22:00 +27°C° 0 mm 10 mps 723 mmHg 26%
    23:00 +24°C° 0 mm 10 mps 723 mmHg 30%

    Tomorrow, 24 January, Thursday

    Time Temperature Precipitation Wind Pressure Humidity
    00:00 +23°C° 0 mm 10 mps 723 mmHg 38%
    01:00 +21°C° 0 mm 10 mps 723 mmHg 45%
    02:00 +19°C° 0 mm 9 mps 723 mmHg 53%
    03:00 +19°C° 0 mm 9 mps 724 mmHg 54%
    04:00 +18°C° 0 mm 9 mps 724 mmHg 56%
    05:00 +18°C° 0 mm 8 mps 724 mmHg 58%
    06:00 +18°C° 0 mm 8 mps 725 mmHg 56%
    07:00 +20°C° 0 mm 8 mps 725 mmHg 53%
    08:00 +21°C° 0 mm 8 mps 726 mmHg 51%
    09:00 +23°C° 0 mm 7 mps 726 mmHg 46%
    10:00 +26°C° 0 mm 7 mps 726 mmHg 40%
    11:00 +28°C° 0 mm 7 mps 726 mmHg 35%
    12:00 +29°C° 0 mm 6 mps 725 mmHg 31%
    13:00 +32°C° 0 mm 6 mps 725 mmHg 28%
    14:00 +33°C° 0 mm 6 mps 725 mmHg 24%
    15:00 +33°C° 0 mm 6 mps 725 mmHg 24%
    16:00 +34°C° 0 mm 6 mps 725 mmHg 24%
    17:00 +34°C° 0 mm 6 mps 725 mmHg 24%
    18:00 +32°C° 0 mm 7 mps 725 mmHg 29%
    19:00 +29°C° 0 mm 8 mps 726 mmHg 33%
    20:00 +27°C° 0 mm 9 mps 726 mmHg 38%
    21:00 +26°C° 0 mm 9 mps 727 mmHg 43%
    22:00 +23°C° 0 mm 9 mps 727 mmHg 49%
    23:00 +22°C° 0 mm 9 mps 728 mmHg 54%

    Day after tomorrow, 25 January, Friday

    Time Temperature Precipitation Wind Pressure Humidity
    00:00 +21°C° 0 mm 8 mps 728 mmHg 58%
    01:00 +20°C° 0 mm 8 mps 728 mmHg 62%
    02:00 +18°C° 0 mm 7 mps 727 mmHg 65%
    03:00 +17°C° 0 mm 7 mps 728 mmHg 67%
    04:00 +17°C° 0 mm 7 mps 728 mmHg 69%
    05:00 +17°C° 0 mm 6 mps 728 mmHg 71%
    06:00 +19°C° 0 mm 6 mps 728 mmHg 67%
    07:00 +20°C° 0 mm 6 mps 729 mmHg 62%
    08:00 +21°C° 0 mm 5 mps 729 mmHg 58%
    09:00 +22°C° 0 mm 5 mps 729 mmHg 52%
    10:00 +25°C° 0 mm 4 mps 729 mmHg 46%
    11:00 +27°C° 0 mm 4 mps 729 mmHg 40%
    12:00 +29°C° 0 mm 4 mps 728 mmHg 36%
    13:00 +30°C° 0 mm 3 mps 727 mmHg 32%
    14:00 +32°C° 0 mm 2 mps 727 mmHg 28%
    15:00 +32°C° 0 mm 2 mps 726 mmHg 26%
    16:00 +34°C° 0 mm 2 mps 726 mmHg 24%
    17:00 +33°C° 0 mm 1 mps 726 mmHg 23%
    18:00 +34°C° 0 mm 2 mps 726 mmHg 24%
    19:00 +33°C° 0 mm 4 mps 727 mmHg 24%
    20:00 +33°C° 0 mm 5 mps 727 mmHg 25%
    21:00 +32°C° 0 mm 5 mps 728 mmHg 27%
    22:00 +30°C° 0 mm 6 mps 728 mmHg 28%
    23:00 +29°C° 0 mm 6 mps 728 mmHg 29%

    26 January, Saturday

    Time Temperature Precipitation Wind Pressure Humidity
    00:00 +28°C° 0 mm 7 mps 728 mmHg 36%
    01:00 +26°C° 0 mm 7 mps 728 mmHg 43%
    02:00 +24°C° 0 mm 7 mps 728 mmHg 50%
    03:00 +23°C° 0 mm 7 mps 728 mmHg 54%
    04:00 +21°C° 0 mm 7 mps 728 mmHg 57%
    05:00 +20°C° 0 mm 7 mps 729 mmHg 61%
    06:00 +21°C° 0 mm 7 mps 729 mmHg 59%
    07:00 +21°C° 0 mm 7 mps 730 mmHg 57%
    08:00 +22°C° 0 mm 7 mps 730 mmHg 55%
    09:00 +24°C° 0 mm 7 mps 730 mmHg 49%
    10:00 +28°C° 0 mm 6 mps 730 mmHg 43%
    11:00 +30°C° 0 mm 6 mps 730 mmHg 37%
    12:00 +32°C° 0 mm 6 mps 729 mmHg 34%
    13:00 +33°C° 0 mm 6 mps 729 mmHg 31%
    14:00 +35°C° 0 mm 5 mps 728 mmHg 28%
    15:00 +35°C° 0 mm 5 mps 728 mmHg 27%
    16:00 +35°C° 0 mm 5 mps 728 mmHg 25%
    17:00 +36°C° 0 mm 5 mps 728 mmHg 24%
    18:00 +35°C° 0 mm 5 mps 729 mmHg 22%
    19:00 +34°C° 0 mm 6 mps 729 mmHg 21%
    20:00 +33°C° 0 mm 7 mps 730 mmHg 20%
    21:00 +31°C° 0 mm 8 mps 730 mmHg 24%
    22:00 +28°C° 0 mm 9 mps 730 mmHg 29%
    23:00 +26°C° 0 mm 11 mps 731 mmHg 33%

    27 January, Sunday

    Time Temperature Precipitation Wind Pressure Humidity
    00:00 +24°C° 0 mm 10 mps 730 mmHg 41%
    01:00 +22°C° 0 mm 9 mps 730 mmHg 49%
    02:00 +19°C° 0 mm 9 mps 730 mmHg 57%
    03:00 +20°C° 0 mm 8 mps 730 mmHg 60%
    04:00 +18°C° 0 mm 8 mps 730 mmHg 63%
    05:00 +18°C° 0 mm 7 mps 730 mmHg 66%
    06:00 +20°C° 0 mm 7 mps 731 mmHg 61%
    07:00 +21°C° 0 mm 7 mps 731 mmHg 57%
    08:00 +22°C° 0 mm 6 mps 732 mmHg 52%
    09:00 +24°C° 0 mm 6 mps 731 mmHg 46%
    10:00 +28°C° 0 mm 5 mps 731 mmHg 39%
    11:00 +30°C° 0 mm 5 mps 731 mmHg 32%
    12:00 +32°C° 0 mm 4 mps 730 mmHg 29%
    13:00 +34°C° 0 mm 4 mps 729 mmHg 25%
    14:00 +35°C° 0 mm 3 mps 729 mmHg 21%
    15:00 +35°C° 0 mm 3 mps 728 mmHg 20%
    16:00 +36°C° 0 mm 3 mps 728 mmHg 18%
    17:00 +36°C° 0 mm 3 mps 728 mmHg 17%
    18:00 +35°C° 0 mm 3 mps 728 mmHg 17%
    19:00 +34°C° 0 mm 3 mps 728 mmHg 18%
    20:00 +34°C° 0 mm 3 mps 729 mmHg 18%
    21:00 +33°C° 0 mm 4 mps 729 mmHg 19%
    22:00 +32°C° 0 mm 4 mps 729 mmHg 20%
    23:00 +32°C° 0 mm 4 mps 729 mmHg 21%

    28 January, Monday

    Time Temperature Precipitation Wind Pressure Humidity
    00:00 +30°C° 0 mm 4 mps 729 mmHg 22%
    01:00 +29°C° 0 mm 5 mps 729 mmHg 23%
    02:00 +28°C° 0 mm 5 mps 728 mmHg 24%
    03:00 +27°C° 0 mm 5 mps 728 mmHg 25%
    04:00 +26°C° 0 mm 5 mps 728 mmHg 27%
    05:00 +25°C° 0 mm 4 mps 728 mmHg 29%
    06:00 +27°C° 0 mm 5 mps 729 mmHg 28%
    07:00 +28°C° 0 mm 5 mps 729 mmHg 27%
    08:00 +29°C° 0 mm 6 mps 729 mmHg 26%
    09:00 +32°C° 0 mm 5 mps 729 mmHg 22%
    10:00 +34°C° 0 mm 5 mps 729 mmHg 19%
    11:00 +36°C° 0 mm 4 mps 729 mmHg 16%
    12:00 +37°C° 0 mm 3 mps 728 mmHg 14%
    13:00 +37°C° 0 mm 2 mps 727 mmHg 13%
    14:00 +37°C° 0 mm 1 mps 727 mmHg 12%
    15:00 +39°C° 0 mm 1 mps 726 mmHg 11%
    16:00 +39°C° 0 mm 1 mps 726 mmHg 11%
    17:00 +39°C° 0 mm 1 mps 726 mmHg 10%
    18:00 +38°C° 0 mm 2 mps 726 mmHg 10%
    19:00 +38°C° 0 mm 3 mps 726 mmHg 11%
    20:00 +37°C° 0 mm 4 mps 726 mmHg 11%
    21:00 +36°C° 0 mm 5 mps 726 mmHg 12%
    22:00 +35°C° 0 mm 5 mps 726 mmHg 13%
    23:00 +35°C° 0 mm 6 mps 726 mmHg 13%
    Show more